GW5950 Weather Reports


time (UTC)temp
F
wind
direction
speed
knots
gust
knots
rain 1hr
in
rain 24hr
in
rain mn
in
humidity
%
barometer
mb
20260507060830 53 84 0.9 2.6 0.00 0.00 0.00 89 1005.8
20260507060326 53 281 1.7 2.6 0.00 0.00 0.00 89 1005.8
20260507055823 53 55 0.0 1.7 0.00 0.00 0.00 90 1005.8
20260507055318 54 337 1.7 7.0 0.00 0.00 0.00 90 1005.8
20260507054815 54 292 0.9 1.7 0.00 0.00 0.00 91 1005.8
20260507054311 54 313 1.7 2.6 0.00 0.00 0.00 91 1005.9
20260507053808 55 288 1.7 2.6 0.00 0.00 0.00 92 1006.0
20260507053306 55 327 1.7 7.0 0.00 0.00 0.00 92 1006.0
20260507052805 55 53 0.0 2.6 0.00 0.00 0.00 94 1006.2
20260507052301 55 269 0.9 3.5 0.00 0.00 0.00 94 1006.1
20260507051759 55 103 0.0 2.6 0.00 0.00 0.00 94 1006.1
20260507051256 55 14 0.0 3.5 0.00 0.00 0.00 93 1006.1
20260507050752 55 282 0.0 2.6 0.00 0.00 0.00 93 1005.9
20260507050248 56 108 0.0 0.9 0.00 0.00 0.00 94 1005.9
20260507045745 56 306 3.5 3.5 0.00 0.00 0.00 94 1005.9
20260507045241 56 71 0.0 1.7 0.00 0.00 0.00 94 1006.0
20260507044739 56 322 0.9 1.7 0.00 0.00 0.00 94 1006.2
20260507044235 56 283 0.0 1.7 0.00 0.00 0.00 94 1006.0
20260507043731 56 57 1.7 3.5 0.00 0.00 0.00 94 1006.0
20260507043229 57 29 0.0 2.6 0.00 0.00 0.00 93 1005.8
20260507042725 57 282 1.7 3.5 0.00 0.00 0.00 93 1005.8
20260507042225 57 255 5.2 8.7 0.00 0.00 0.00 93 1005.8
20260507041723 57 292 1.7 4.3 0.00 0.00 0.00 94 1006.0
20260507041220 57 303 1.7 4.3 0.00 0.00 0.00 95 1005.8
20260507040717 57 93 1.7 2.6 0.00 0.00 0.00 95 1006.0
20260507040213 58 44 0.9 5.2 0.00 0.11 0.11 95 1005.7
20260507035709 58 276 2.6 3.5 0.00 0.11 0.11 96 1005.9
20260507035205 58 39 0.9 3.5 0.00 0.11 0.11 96 1005.8
20260507034702 58 250 1.7 2.6 0.00 0.11 0.11 97 1006.0
20260507034159 58 289 1.7 2.6 0.00 0.11 0.11 98 1005.8
20260507033658 58 191 1.7 2.6 0.00 0.11 0.11 99 1005.4
20260507033154 58 237 1.7 1.7 0.00 0.11 0.11 99 1005.5
20260507032652 59 256 1.7 2.6 0.00 0.11 0.11 99 1005.4
20260507032147 59 344 0.0 4.3 0.00 0.11 0.11 99 1005.2
20260507031645 59 208 3.5 5.2 0.00 0.11 0.11 99 1005.5
20260507031141 59 278 3.5 4.3 0.02 0.11 0.11 99 1005.4
20260507030638 59 266 1.7 7.8 0.02 0.11 0.11 99 1005.1
20260507030136 59 84 1.7 5.2 0.02 0.11 0.11 99 1005.2
20260507025633 59 254 0.9 11.3 0.00 0.11 0.11 98 1005.0
20260507025130 59 254 1.7 2.6 0.00 0.11 0.11 98 1005.1
20260507024628 59 229 1.7 2.6 0.00 0.11 0.11 98 1004.8
20260507024125 59 193 0.0 2.6 0.00 0.11 0.11 98 1005.1
20260507023620 59 193 0.0 2.6 0.00 0.11 0.11 98 1005.1
20260507023118 59 223 0.0 2.6 0.00 0.11 0.11 98 1005.0
20260507022614 59 180 1.7 4.3 0.00 0.11 0.11 98 1005.1
20260507022110 59 198 0.9 2.6 0.00 0.11 0.11 98 1005.1
20260507021606 59 243 1.7 2.6 0.00 0.11 0.11 98 1005.1
20260507021102 59 267 1.7 2.6 0.00 0.11 0.11 98 1004.9
20260507020601 59 115 0.0 1.7 0.00 0.11 0.11 98 1004.7
20260507020056 59 104 1.7 2.6 0.00 0.11 0.11 98 1005.0
20260507015555 59 260 1.7 5.2 0.00 0.11 0.11 98 1005.0
20260507015052 59 212 1.7 7.8 0.00 0.11 0.11 98 1005.0
20260507014549 59 268 0.9 3.5 0.00 0.11 0.11 98 1004.8
20260507014044 59 216 2.6 5.2 0.00 0.11 0.11 98 1004.8
20260507013542 59 232 4.3 7.8 0.00 0.11 0.11 98 1004.9
20260507013039 59 243 4.3 5.2 0.00 0.11 0.11 98 1005.0
20260507012536 59 105 1.7 2.6 0.00 0.11 0.11 98 1004.9
20260507012032 59 198 1.7 4.3 0.00 0.11 0.11 98 1005.0
20260507011530 59 214 3.5 5.2 0.00 0.11 0.11 99 1005.1
20260507011025 59 169 3.5 4.3 0.00 0.11 0.11 99 1005.1
20260507010520 59 209 1.7 3.5 0.00 0.11 0.11 98 1005.2
20260507010017 59 127 1.7 5.2 0.00 0.11 0.11 98 1005.2
20260507005515 59 170 0.9 4.3 0.00 0.11 0.11 98 1005.0
20260507005011 59 265 1.7 7.0 0.00 0.11 0.11 98 1005.2
20260507004508 59 193 4.3 6.1 0.00 0.11 0.11 98 1005.2
20260507004005 59 211 1.7 6.1 0.00 0.11 0.11 98 1005.1
20260507003500 59 164 1.7 4.3 0.00 0.11 0.11 98 1005.3
20260507002955 59 194 1.7 5.2 0.00 0.11 0.11 98 1005.0
20260507002452 59 154 0.9 7.8 0.00 0.11 0.11 98 1005.2
20260507001949 59 242 0.0 7.8 0.00 0.11 0.11 99 1005.1
20260507001446 59 215 4.3 4.3 0.00 0.11 0.11 99 1005.0
20260507000943 59 220 1.7 4.3 0.00 0.11 0.11 99 1005.0
20260507000439 59 176 1.7 7.0 0.00 0.11 0.11 99 1005.0
20260506235935 59 249 2.6 5.2 0.00 0.11 0.11 99 1004.6
20260506235433 59 206 1.7 4.3 0.00 0.11 0.11 99 1004.7
20260506234932 59 235 5.2 6.1 0.00 0.11 0.11 99 1004.6
20260506234431 59 152 1.7 3.5 0.00 0.11 0.11 99 1004.7
20260506233928 59 233 2.6 6.1 0.00 0.11 0.11 99 1004.9
20260506233425 59 266 2.6 7.8 0.00 0.11 0.11 99 1004.9
20260506232921 59 198 4.3 9.6 0.00 0.11 0.11 99 1004.8
20260506232418 59 135 0.0 3.5 0.02 0.11 0.11 99 1004.7
20260506231913 59 193 0.0 2.6 0.05 0.11 0.11 99 1004.9
20260506231411 59 237 2.6 5.2 0.05 0.10 0.10 99 1004.8
20260506230908 59 182 2.6 5.2 0.12 0.10 0.10 99 1004.9
20260506230405 59 183 1.7 2.6 0.14 0.09 0.09 99 1004.9
20260506225901 59 107 0.0 4.3 0.05 0.08 0.08 99 1004.9
20260506225359 59 119 0.0 4.3 0.02 0.07 0.07 99 1004.8
20260506224855 59 200 0.9 3.5 0.00 0.07 0.07 99 1005.0
20260506224353 59 171 0.9 5.2 0.00 0.07 0.07 98 1004.8
20260506223849 59 164 0.9 5.2 0.00 0.07 0.07 98 1005.0
20260506223344 59 211 2.6 7.0 0.00 0.07 0.07 98 1005.0
20260506222842 59 224 6.1 7.0 0.00 0.07 0.07 98 1004.9
20260506222337 59 143 0.0 5.2 0.00 0.07 0.07 97 1004.9
20260506221835 60 222 2.6 5.2 0.00 0.07 0.07 97 1004.8
20260506221332 60 220 1.7 4.3 0.00 0.07 0.07 97 1005.0
20260506220830 60 233 0.9 4.3 0.00 0.07 0.07 97 1005.3
20260506220325 60 225 7.0 9.6 0.02 0.07 0.07 97 1005.4
20260506215822 60 194 1.7 6.1 0.02 0.07 0.07 97 1005.2
20260506215318 60 266 2.6 4.3 0.00 0.06 0.06 96 1005.2
20260506214814 60 131 1.7 10.4 0.00 0.06 0.06 96 1005.2
20260506214311 60 98 0.9 2.6 0.00 0.06 0.06 96 1005.3
20260506213809 60 155 1.7 2.6 0.00 0.06 0.06 95 1005.6
20260506213306 60 256 0.0 3.5 0.00 0.06 0.06 95 1005.5
20260506212804 60 89 3.5 4.3 0.00 0.06 0.06 95 1005.5
20260506212259 60 206 3.5 7.8 0.00 0.06 0.06 95 1005.6
20260506211754 60 234 1.7 5.2 0.00 0.06 0.06 96 1005.5
20260506211251 60 201 3.5 7.0 0.00 0.06 0.06 96 1005.6
20260506210748 60 205 1.7 3.5 0.00 0.06 0.06 96 1005.7
20260506210245 60 258 3.5 6.1 0.00 0.06 0.06 96 1005.5
20260506205742 60 200 1.7 5.2 0.00 0.06 0.06 96 1005.5
20260506205237 60 193 2.6 4.3 0.02 0.06 0.06 95 1005.9
20260506204734 60 186 0.9 4.3 0.02 0.06 0.06 95 1005.9
20260506204232 60 196 4.3 7.0 0.00 0.06 0.06 95 1005.6
20260506203730 60 84 1.7 7.0 0.00 0.06 0.06 95 1005.8
20260506203227 60 25 2.6 5.2 0.00 0.06 0.06 95 1005.8
20260506202725 60 242 2.6 7.8 0.02 0.06 0.06 95 1005.8
20260506202221 60 204 6.1 8.7 0.02 0.06 0.06 95 1005.9
20260506201718 60 140 1.7 6.1 0.00 0.06 0.06 96 1005.8
20260506201214 60 204 1.7 8.7 0.02 0.06 0.06 96 1005.9
20260506200711 60 242 3.5 4.3 0.00 0.05 0.05 96 1005.9
20260506200208 60 196 1.7 7.8 0.02 0.05 0.05 95 1005.8
20260506195704 60 246 5.2 8.7 0.02 0.05 0.05 95 1005.9
20260506195201 60 217 0.0 7.0 0.00 0.05 0.05 95 1005.7
20260506194658 60 252 5.2 9.6 0.02 0.05 0.05 94 1005.8
20260506194154 61 62 1.7 5.2 0.05 0.05 0.05 95 1006.0
20260506193652 61 259 4.3 6.1 0.07 0.04 0.04 93 1006.0
20260506193149 62 2 1.7 8.7 0.05 0.04 0.04 93 1005.9
20260506192646 62 137 0.9 7.0 0.05 0.03 0.03 92 1005.9
20260506192142 62 215 4.3 6.1 0.05 0.03 0.03 90 1005.9
20260506191639 63 259 0.9 3.5 0.05 0.02 0.02 90 1005.9
20260506191135 63 230 2.6 6.1 0.05 0.02 0.02 88 1005.9
20260506190632 64 228 2.6 4.3 0.02 0.02 0.02 87 1005.9
20260506190129 64 230 0.0 1.7 0.02 0.01 0.01 86 1005.9
20260506185626 64 288 0.0 5.2 0.05 0.01 0.01 85 1006.1
20260506185122 65 232 4.3 6.1 0.05 0.01 0.01 82 1006.1
20260506184620 66 242 10.4 12.2 0.02 0.00 0.00 78 1006.1
20260506184117 67 89 2.6 7.8 0.00 0.00 0.00 76 1006.3
20260506183614 67 241 3.5 5.2 0.00 0.00 0.00 75 1006.4
20260506183109 67 205 6.1 7.8 0.00 0.00 0.00 74 1006.3
20260506182608 67 190 1.7 11.3 0.00 0.00 0.00 73 1006.3
20260506182104 68 181 4.3 12.2 0.00 0.00 0.00 72 1006.2
20260506181602 69 226 5.2 11.3 0.00 0.00 0.00 68 1006.3
20260506181059 69 282 7.8 13.0 0.00 0.00 0.00 67 1006.4
20260506180555 71 278 2.6 3.5 0.00 0.00 0.00 62 1006.0
20260506180052 71 274 3.5 4.3 0.00 0.00 0.00 62 1006.1
20260506175548 71 206 4.3 13.0 0.00 0.00 0.00 61 1006.3
20260506175045 71 290 2.6 4.3 0.00 0.00 0.00 60 1006.2
20260506174544 71 205 1.7 11.3 0.00 0.00 0.00 60 1006.2
20260506174039 71 180 5.2 17.4 0.00 0.00 0.00 60 1006.4
20260506173537 72 258 2.6 11.3 0.00 0.00 0.00 60 1006.2
20260506173034 72 255 7.8 13.0 0.00 0.00 0.00 59 1006.2
20260506172531 72 176 4.3 8.7 0.00 0.00 0.00 59 1006.1
20260506172027 72 217 7.8 13.0 0.00 0.00 0.00 58 1006.5
20260506171525 73 237 2.6 8.7 0.00 0.00 0.00 59 1006.5
20260506171022 73 250 3.5 11.3 0.00 0.00 0.00 59 1006.4
20260506170520 73 294 3.5 13.0 0.00 0.00 0.00 58 1006.3
20260506170012 73 201 7.0 11.3 0.00 0.00 0.00 57 1006.3
20260506165510 73 217 2.6 8.7 0.00 0.00 0.00 57 1006.4
20260506165006 73 213 3.5 4.3 0.00 0.00 0.00 59 1006.6
20260506164503 72 226 4.3 14.8 0.00 0.00 0.00 59 1006.4
20260506164001 72 209 3.5 9.6 0.00 0.00 0.00 60 1006.7
20260506163456 72 252 7.0 7.8 0.00 0.00 0.00 61 1006.8
20260506162950 71 244 6.1 10.4 0.00 0.00 0.00 61 1006.9
20260506162448 71 251 4.3 4.3 0.00 0.00 0.00 62 1006.7
20260506161945 71 266 1.7 4.3 0.00 0.00 0.00 63 1007.0
20260506161443 71 220 3.5 7.0 0.00 0.00 0.00 62 1007.1
20260506160940 71 257 2.6 5.2 0.00 0.00 0.00 63 1007.2
20260506160437 71 221 3.5 9.6 0.00 0.00 0.00 63 1007.3
20260506155934 71 229 2.6 7.0 0.00 0.00 0.00 63 1007.4
20260506155432 70 254 7.0 7.8 0.00 0.00 0.00 63 1007.5
20260506153554 70 202 3.5 11.3 0.00 0.00 0.00 64 1007.8
20260506153052 71 201 3.5 12.2 0.00 0.00 0.00 63 1007.9
20260506152548 71 165 1.7 7.0 0.00 0.00 0.00 63 1007.9
20260506152046 71 198 7.0 8.7 0.00 0.00 0.00 62 1007.9
20260506151544 71 209 2.6 8.7 0.00 0.00 0.00 63 1008.1
20260506151041 71 156 1.7 5.2 0.00 0.00 0.00 64 1007.9
20260506150537 71 264 1.7 9.6 0.00 0.00 0.00 66 1007.9
20260506150034 71 212 4.3 4.3 0.00 0.00 0.00 64 1007.9
20260506145530 70 247 3.5 5.2 0.00 0.00 0.00 65 1007.8
20260506145023 70 231 7.0 7.8 0.00 0.00 0.00 66 1008.1
20260506144519 69 222 5.2 11.3 0.00 0.00 0.00 66 1008.3
20260506144017 70 227 2.6 11.3 0.00 0.00 0.00 68 1008.1
20260506143514 70 241 4.3 4.3 0.00 0.00 0.00 68 1008.1
20260506143013 70 257 4.3 4.3 0.00 0.00 0.00 68 1008.1
20260506142510 69 230 3.5 9.6 0.00 0.00 0.00 69 1008.3
20260506142008 69 225 7.0 8.7 0.00 0.00 0.00 69 1008.1
20260506141506 69 175 4.3 15.6 0.00 0.00 0.00 69 1007.9
20260506141004 69 171 1.7 5.2 0.00 0.00 0.00 69 1008.0
20260506140501 69 140 0.0 15.6 0.00 0.00 0.00 69 1008.0
20260506135957 68 273 3.5 12.2 0.00 0.00 0.00 70 1008.1
20260506135455 68 216 4.3 7.0 0.00 0.00 0.00 72 1008.4
20260506134951 67 269 2.6 14.8 0.00 0.00 0.00 73 1008.1
20260506134447 68 223 7.8 14.8 0.00 0.00 0.00 71 1008.3
20260506133944 68 224 6.1 9.6 0.00 0.00 0.00 72 1008.3
20260506133441 67 190 8.7 8.7 0.00 0.00 0.00 73 1008.3
20260506132938 67 243 5.2 6.1 0.00 0.00 0.00 74 1008.6
20260506132435 67 219 3.5 7.8 0.00 0.00 0.00 74 1008.6
20260506131932 66 219 2.6 4.3 0.00 0.00 0.00 75 1008.6
20260506131428 66 265 2.6 5.2 0.00 0.00 0.00 75 1008.7
20260506130925 66 128 2.6 2.6 0.00 0.00 0.00 76 1008.7
20260506130422 65 210 5.2 8.7 0.00 0.00 0.00 76 1008.8
20260506125920 66 194 7.8 7.8 0.00 0.00 0.00 76 1008.6
20260506125418 65 219 5.2 8.7 0.00 0.00 0.00 76 1008.4
20260506124916 65 244 4.3 13.0 0.00 0.00 0.00 76 1008.8
20260506124413 65 212 2.6 11.3 0.00 0.00 0.00 76 1008.6
20260506123911 65 113 1.7 10.4 0.00 0.00 0.00 77 1008.6
20260506123409 65 341 0.0 8.7 0.00 0.00 0.00 77 1008.7
20260506122906 64 208 5.2 8.7 0.00 0.00 0.00 77 1009.0
20260506122402 65 295 1.7 7.0 0.00 0.00 0.00 78 1009.0
20260506121901 64 199 6.1 7.8 0.00 0.00 0.00 78 1008.6
20260506121357 64 184 1.7 4.3 0.00 0.00 0.00 79 1008.9
20260506120854 64 180 1.7 2.6 0.00 0.00 0.00 78 1008.9
20260506120352 65 229 4.3 5.2 0.00 0.00 0.00 77 1008.8
20260506115849 65 160 1.7 6.1 0.00 0.00 0.00 78 1008.7
20260506115347 64 110 0.0 3.5 0.00 0.00 0.00 79 1008.9
20260506114845 63 245 1.7 1.7 0.00 0.00 0.00 81 1009.1
20260506114342 62 214 2.6 7.8 0.00 0.00 0.00 81 1008.9
20260506113841 62 131 1.7 7.8 0.00 0.00 0.00 82 1009.1
20260506113338 61 215 4.3 6.1 0.00 0.00 0.00 82 1009.1
20260506112835 62 243 3.5 5.2 0.00 0.00 0.00 82 1009.4
20260506112332 62 262 0.0 4.3 0.00 0.00 0.00 82 1009.2
20260506111829 62 226 1.7 5.2 0.00 0.00 0.00 82 1009.4
20260506111328 61 261 0.9 3.5 0.00 0.00 0.00 83 1009.1
20260506110825 61 172 1.7 3.5 0.00 0.00 0.00 83 1009.0
20260506110322 62 181 1.7 4.3 0.00 0.00 0.00 82 1009.2
20260506105819 62 191 1.7 6.1 0.00 0.00 0.00 82 1009.3
20260506105315 61 171 1.7 4.3 0.00 0.00 0.00 82 1009.1
20260506104812 61 240 4.3 10.4 0.00 0.00 0.00 83 1009.1
20260506104310 60 217 7.0 9.6 0.00 0.00 0.00 84 1009.0
20260506103807 60 192 1.7 4.3 0.00 0.00 0.00 85 1009.0
20260506103305 59 258 2.6 3.5 0.00 0.00 0.00 85 1008.9
20260506102802 59 125 0.9 3.5 0.00 0.00 0.00 85 1009.0
20260506102300 59 71 0.9 3.5 0.00 0.00 0.00 85 1009.3
20260506101757 59 255 1.7 6.1 0.00 0.00 0.00 85 1009.2
20260506101253 60 188 0.9 2.6 0.00 0.00 0.00 85 1009.1
20260506100751 60 154 1.7 3.5 0.00 0.00 0.00 85 1008.8
20260506100249 59 211 1.7 6.1 0.00 0.00 0.00 85 1008.9
20260506095748 59 183 2.6 4.3 0.00 0.00 0.00 85 1009.1
20260506095244 59 121 1.7 4.3 0.00 0.00 0.00 85 1008.9
20260506094740 59 209 1.7 4.3 0.00 0.00 0.00 85 1008.8
20260506094239 59 140 4.3 4.3 0.00 0.00 0.00 85 1009.0
20260506093737 59 65 0.9 5.2 0.00 0.00 0.00 85 1008.7
20260506093234 59 180 0.9 2.6 0.00 0.00 0.00 85 1009.1
20260506092732 59 192 1.7 3.5 0.00 0.00 0.00 84 1008.8
20260506092230 59 121 2.6 5.2 0.00 0.00 0.00 84 1008.9
20260506091727 59 228 2.6 4.3 0.00 0.00 0.00 84 1009.0
20260506091224 60 118 1.7 4.3 0.00 0.00 0.00 84 1009.0
20260506090722 60 260 3.5 7.0 0.00 0.00 0.00 83 1008.8
20260506090218 59 200 2.6 4.3 0.00 0.00 0.00 84 1008.9
20260506085715 60 188 0.9 2.6 0.00 0.00 0.00 83 1008.8
20260506085212 60 169 2.6 4.3 0.00 0.00 0.00 83 1009.0
20260506084708 60 243 3.5 5.2 0.00 0.00 0.00 83 1009.1
20260506084204 60 183 0.9 2.6 0.00 0.00 0.00 82 1009.2
20260506083702 60 251 2.6 6.1 0.00 0.00 0.00 82 1009.1
20260506083159 60 211 2.6 8.7 0.00 0.00 0.00 81 1009.0
20260506082656 60 277 0.0 3.5 0.00 0.00 0.00 81 1009.0
20260506082156 60 247 4.3 8.7 0.00 0.00 0.00 81 1009.1
20260506081655 60 234 3.5 4.3 0.00 0.00 0.00 81 1008.9
20260506081152 60 288 0.9 4.3 0.00 0.00 0.00 81 1008.9
20260506080650 61 175 5.2 5.2 0.00 0.00 0.00 80 1008.9
20260506080146 61 198 2.6 9.6 0.00 0.00 0.00 80 1008.9
20260506073130 61 244 1.7 4.3 0.00 0.00 0.00 78 1009.0
20260506072627 61 199 1.7 3.5 0.00 0.00 0.00 78 1009.0
20260506072125 62 217 3.5 3.5 0.00 0.00 0.00 78 1008.8
20260506071622 62 263 1.7 7.8 0.00 0.00 0.00 77 1008.7
20260506071120 62 237 3.5 7.0 0.00 0.00 0.00 77 1008.8
20260506070616 62 195 0.9 4.3 0.00 0.00 0.00 77 1008.6
20260506070114 62 159 2.6 13.9 0.00 0.00 0.00 76 1008.8
20260506062051 63 204 4.3 6.1 0.00 0.00 0.00 73 1008.4
20260506061546 64 160 1.7 10.4 0.00 0.00 0.00 72 1008.6
20260506061044 64 272 2.6 7.8 0.00 0.00 0.00 72 1008.6